| time (UTC) | temp F | wind direction | speed knots | gust knots | rain 1hr in | rain 24hr in | rain mn in | humidity % | barometer mb |
| 20260508013140 | 41 | 283 | 1.7 | 1.7 | 0.00 | 0.00 | 0.00 | 87 | 874.0 |
| 20260508012940 | 41 | 284 | 1.7 | 2.6 | 0.00 | 0.00 | 0.00 | 87 | 874.0 |
| 20260508012740 | 41 | 293 | 2.6 | 3.5 | 0.00 | 0.00 | 0.00 | 87 | 873.9 |
| 20260508012540 | 41 | 301 | 2.6 | 3.5 | 0.00 | 0.00 | 0.00 | 87 | 873.9 |
| 20260508012331 | 41 | 305 | 3.5 | 5.2 | 0.00 | 0.00 | 0.00 | 87 | 873.9 |
| 20260508012132 | 41 | 298 | 3.5 | 4.3 | 0.00 | 0.00 | 0.00 | 87 | 873.9 |
| 20260508011931 | 41 | 288 | 2.6 | 3.5 | 0.00 | 0.00 | 0.00 | 87 | 873.9 |
| 20260508011732 | 41 | 273 | 2.6 | 3.5 | 0.00 | 0.00 | 0.00 | 87 | 873.9 |
| 20260508011531 | 41 | 261 | 3.5 | 5.2 | 0.00 | 0.00 | 0.00 | 87 | 874.0 |
| 20260508011329 | 41 | 254 | 4.3 | 6.1 | 0.00 | 0.00 | 0.00 | 87 | 874.0 |
| 20260508011129 | 41 | 257 | 4.3 | 6.1 | 0.00 | 0.00 | 0.00 | 87 | 873.9 |
| 20260508010929 | 41 | 264 | 4.3 | 5.2 | 0.00 | 0.00 | 0.00 | 87 | 873.9 |
| 20260508010729 | 41 | 270 | 4.3 | 5.2 | 0.00 | 0.00 | 0.00 | 87 | 873.9 |
| 20260508010529 | 40 | 276 | 4.3 | 5.2 | 0.00 | 0.00 | 0.00 | 87 | 873.9 |
| 20260508010329 | 40 | 272 | 5.2 | 6.1 | 0.00 | 0.00 | 0.00 | 87 | 873.9 |
| 20260508010129 | 40 | 273 | 4.3 | 6.1 | 0.00 | 0.00 | 0.00 | 87 | 873.9 |
| 20260508005929 | 40 | 272 | 4.3 | 6.1 | 0.00 | 0.00 | 0.00 | 87 | 873.9 |
| 20260508005729 | 40 | 270 | 4.3 | 6.1 | 0.00 | 0.00 | 0.00 | 87 | 873.9 |
| 20260508005529 | 40 | 269 | 5.2 | 7.0 | 0.00 | 0.00 | 0.00 | 87 | 873.9 |
| 20260508005327 | 40 | 273 | 5.2 | 7.0 | 0.00 | 0.00 | 0.00 | 87 | 873.9 |
| 20260508005127 | 40 | 280 | 5.2 | 7.0 | 0.00 | 0.00 | 0.00 | 87 | 873.9 |
| 20260508004927 | 40 | 280 | 5.2 | 7.0 | 0.00 | 0.00 | 0.00 | 86 | 873.8 |
| 20260508004727 | 40 | 281 | 5.2 | 7.0 | 0.00 | 0.00 | 0.00 | 86 | 873.9 |
| 20260508004527 | 40 | 278 | 5.2 | 7.0 | 0.00 | 0.00 | 0.00 | 86 | 873.8 |
| 20260508004325 | 41 | 278 | 6.1 | 7.0 | 0.00 | 0.00 | 0.00 | 86 | 873.8 |
| 20260508004125 | 41 | 276 | 6.1 | 7.0 | 0.00 | 0.00 | 0.00 | 86 | 873.9 |
| 20260508003925 | 41 | 274 | 6.1 | 7.0 | 0.00 | 0.00 | 0.00 | 86 | 873.9 |
| 20260508003725 | 41 | 275 | 5.2 | 7.0 | 0.00 | 0.00 | 0.00 | 86 | 873.9 |
| 20260508003525 | 41 | 276 | 5.2 | 7.0 | 0.00 | 0.00 | 0.00 | 86 | 873.9 |
| 20260508003323 | 41 | 274 | 5.2 | 7.0 | 0.00 | 0.00 | 0.00 | 86 | 874.0 |
| 20260508003123 | 41 | 277 | 5.2 | 6.1 | 0.00 | 0.00 | 0.00 | 86 | 874.0 |
| 20260508002924 | 41 | 276 | 4.3 | 5.2 | 0.00 | 0.00 | 0.00 | 86 | 874.0 |
| 20260508002723 | 41 | 279 | 4.3 | 5.2 | 0.00 | 0.00 | 0.00 | 86 | 874.0 |
| 20260508002523 | 41 | 281 | 3.5 | 5.2 | 0.00 | 0.00 | 0.00 | 86 | 874.0 |
| 20260508002323 | 41 | 273 | 3.5 | 4.3 | 0.00 | 0.00 | 0.00 | 86 | 874.1 |
| 20260508002123 | 41 | 272 | 4.3 | 6.1 | 0.00 | 0.00 | 0.00 | 86 | 874.1 |
| 20260508001923 | 41 | 277 | 5.2 | 7.0 | 0.00 | 0.00 | 0.00 | 86 | 874.1 |
| 20260508001723 | 41 | 286 | 3.5 | 7.0 | 0.00 | 0.00 | 0.00 | 86 | 874.1 |
| 20260508001523 | 41 | 280 | 3.5 | 4.3 | 0.00 | 0.00 | 0.00 | 86 | 874.1 |
| 20260508001321 | 41 | 279 | 3.5 | 4.3 | 0.00 | 0.00 | 0.00 | 86 | 874.1 |
| 20260508001121 | 41 | 284 | 3.5 | 4.3 | 0.00 | 0.00 | 0.00 | 86 | 874.1 |
| 20260508000922 | 41 | 286 | 3.5 | 4.3 | 0.00 | 0.00 | 0.00 | 86 | 874.1 |
| 20260508000720 | 41 | 283 | 2.6 | 3.5 | 0.00 | 0.00 | 0.00 | 86 | 874.1 |
| 20260508000520 | 41 | 292 | 2.6 | 3.5 | 0.00 | 0.00 | 0.00 | 86 | 874.1 |
| 20260508000320 | 41 | 295 | 2.6 | 4.3 | 0.00 | 0.00 | 0.00 | 86 | 874.1 |
| 20260508000120 | 41 | 305 | 3.5 | 4.3 | 0.00 | 0.00 | 0.00 | 86 | 874.1 |
| 20260507235920 | 41 | 314 | 3.5 | 5.2 | 0.00 | 0.00 | 0.00 | 86 | 874.1 |
| 20260507235720 | 41 | 323 | 3.5 | 5.2 | 0.00 | 0.00 | 0.00 | 86 | 874.1 |
| 20260507235520 | 41 | 323 | 3.5 | 4.3 | 0.00 | 0.00 | 0.00 | 86 | 874.1 |
| 20260507235318 | 41 | 352 | 3.5 | 4.3 | 0.00 | 0.00 | 0.00 | 86 | 874.0 |
| 20260507235117 | 41 | 10 | 3.5 | 5.2 | 0.00 | 0.00 | 0.00 | 86 | 874.0 |
| 20260507234917 | 41 | 12 | 3.5 | 4.3 | 0.00 | 0.00 | 0.00 | 86 | 874.1 |
| 20260507234718 | 41 | 351 | 4.3 | 5.2 | 0.00 | 0.00 | 0.00 | 86 | 874.1 |
| 20260507234518 | 41 | 319 | 3.5 | 5.2 | 0.00 | 0.00 | 0.00 | 86 | 874.1 |
| 20260507234317 | 41 | 325 | 3.5 | 4.3 | 0.00 | 0.00 | 0.00 | 86 | 874.1 |
| 20260507234117 | 41 | 318 | 3.5 | 4.3 | 0.00 | 0.00 | 0.00 | 86 | 874.1 |
| 20260507233917 | 41 | 329 | 4.3 | 5.2 | 0.00 | 0.00 | 0.00 | 86 | 874.1 |
| 20260507233718 | 41 | 339 | 3.5 | 4.3 | 0.00 | 0.00 | 0.00 | 86 | 874.1 |
| 20260507233515 | 41 | 318 | 3.5 | 5.2 | 0.00 | 0.00 | 0.00 | 86 | 874.1 |
| 20260507233314 | 41 | 347 | 4.3 | 5.2 | 0.00 | 0.00 | 0.00 | 86 | 874.2 |
| 20260507233114 | 41 | 12 | 4.3 | 5.2 | 0.00 | 0.00 | 0.00 | 86 | 874.2 |
| 20260507232914 | 41 | 3 | 3.5 | 5.2 | 0.00 | 0.00 | 0.00 | 86 | 874.2 |
| 20260507232713 | 41 | 4 | 4.3 | 5.2 | 0.00 | 0.00 | 0.00 | 86 | 874.3 |
| 20260507232513 | 41 | 336 | 3.5 | 5.2 | 0.00 | 0.00 | 0.00 | 86 | 874.3 |
| 20260507232313 | 41 | 308 | 3.5 | 5.2 | 0.00 | 0.00 | 0.00 | 86 | 874.3 |
| 20260507232113 | 41 | 301 | 3.5 | 6.1 | 0.00 | 0.00 | 0.00 | 86 | 874.3 |
| 20260507231913 | 41 | 311 | 4.3 | 6.1 | 0.00 | 0.00 | 0.00 | 86 | 874.3 |
| 20260507231713 | 42 | 297 | 3.5 | 5.2 | 0.00 | 0.00 | 0.00 | 86 | 874.4 |
| 20260507231513 | 42 | 276 | 4.3 | 6.1 | 0.00 | 0.00 | 0.00 | 86 | 874.4 |
| 20260507231311 | 42 | 273 | 5.2 | 6.1 | 0.00 | 0.00 | 0.00 | 86 | 874.4 |
| 20260507231111 | 42 | 274 | 6.1 | 7.8 | 0.00 | 0.00 | 0.00 | 86 | 874.3 |
| 20260507230911 | 42 | 273 | 6.1 | 7.8 | 0.00 | 0.00 | 0.00 | 86 | 874.3 |
| 20260507230711 | 42 | 269 | 6.1 | 7.8 | 0.00 | 0.00 | 0.00 | 86 | 816.9 |
| 20260507230511 | 42 | 274 | 6.1 | 7.0 | 0.00 | 0.00 | 0.00 | 86 | 759.5 |
| 20260507230300 | 42 | 277 | 6.1 | 7.0 | 0.00 | 0.00 | 0.00 | 86 | 874.3 |
| 20260507230058 | 42 | 291 | 6.1 | 8.7 | 0.00 | 0.00 | 0.00 | 86 | 874.3 |
| 20260507225858 | 42 | 281 | 7.0 | 8.7 | 0.00 | 0.00 | 0.00 | 86 | 874.3 |
| 20260507225658 | 42 | 285 | 7.0 | 9.6 | 0.00 | 0.00 | 0.00 | 86 | 874.3 |
| 20260507225458 | 42 | 289 | 5.2 | 9.6 | 0.00 | 0.00 | 0.00 | 86 | 874.3 |
| 20260507225258 | 42 | 289 | 5.2 | 7.0 | 0.00 | 0.00 | 0.00 | 86 | 874.2 |
| 20260507225058 | 42 | 302 | 5.2 | 7.0 | 0.00 | 0.00 | 0.00 | 86 | 874.3 |
| 20260507224858 | 42 | 312 | 5.2 | 7.8 | 0.00 | 0.00 | 0.00 | 86 | 874.3 |
| 20260507224658 | 42 | 290 | 6.1 | 7.8 | 0.00 | 0.00 | 0.00 | 86 | 874.3 |
| 20260507224458 | 42 | 293 | 6.1 | 7.0 | 0.00 | 0.00 | 0.00 | 86 | 874.4 |
| 20260507224256 | 42 | 290 | 6.1 | 7.0 | 0.00 | 0.00 | 0.00 | 86 | 874.4 |
| 20260507224056 | 42 | 292 | 5.2 | 7.0 | 0.00 | 0.00 | 0.00 | 86 | 874.3 |
| 20260507223856 | 42 | 299 | 5.2 | 8.7 | 0.00 | 0.00 | 0.00 | 86 | 874.3 |
| 20260507223656 | 42 | 293 | 4.3 | 6.1 | 0.00 | 0.00 | 0.00 | 86 | 874.2 |
| 20260507223456 | 42 | 291 | 6.1 | 8.7 | 0.00 | 0.00 | 0.00 | 86 | 874.2 |
| 20260507223256 | 42 | 288 | 6.1 | 8.7 | 0.00 | 0.00 | 0.00 | 86 | 874.2 |
| 20260507223056 | 42 | 288 | 7.0 | 9.6 | 0.00 | 0.00 | 0.00 | 86 | 874.2 |
| 20260507222856 | 42 | 283 | 7.8 | 9.6 | 0.00 | 0.00 | 0.00 | 86 | 874.2 |
| 20260507222656 | 42 | 285 | 8.7 | 10.4 | 0.00 | 0.00 | 0.00 | 86 | 874.2 |
| 20260507222456 | 42 | 263 | 9.6 | 12.2 | 0.00 | 0.00 | 0.00 | 86 | 874.3 |
| 20260507222254 | 42 | 234 | 7.8 | 12.2 | 0.00 | 0.00 | 0.00 | 86 | 874.3 |
| 20260507222054 | 42 | 233 | 6.1 | 8.7 | 0.00 | 0.00 | 0.00 | 86 | 874.3 |
| 20260507221854 | 42 | 259 | 6.1 | 8.7 | 0.00 | 0.00 | 0.00 | 86 | 874.2 |
| 20260507221654 | 42 | 276 | 7.0 | 8.7 | 0.00 | 0.00 | 0.00 | 86 | 874.2 |
| 20260507221454 | 42 | 305 | 7.0 | 8.7 | 0.00 | 0.00 | 0.00 | 86 | 874.1 |
| 20260507221254 | 42 | 314 | 7.0 | 8.7 | 0.00 | 0.00 | 0.00 | 86 | 874.1 |
| 20260507221055 | 42 | 336 | 7.8 | 10.4 | 0.00 | 0.00 | 0.00 | 86 | 874.0 |
| 20260507220854 | 42 | 10 | 7.8 | 10.4 | 0.00 | 0.00 | 0.00 | 86 | 874.0 |
| 20260507220655 | 42 | 12 | 7.8 | 10.4 | 0.00 | 0.00 | 0.00 | 86 | 874.1 |
| 20260507220455 | 42 | 18 | 8.7 | 9.6 | 0.00 | 0.00 | 0.00 | 85 | 874.1 |
| 20260507220253 | 42 | 21 | 7.0 | 9.6 | 0.00 | 0.00 | 0.00 | 85 | 874.1 |
| 20260507220053 | 42 | 18 | 6.1 | 7.8 | 0.00 | 0.00 | 0.00 | 85 | 874.1 |
| 20260507215853 | 42 | 16 | 6.1 | 7.8 | 0.00 | 0.00 | 0.00 | 85 | 874.1 |
| 20260507215653 | 42 | 12 | 6.1 | 7.0 | 0.00 | 0.00 | 0.00 | 85 | 874.1 |
| 20260507215453 | 42 | 14 | 7.8 | 11.3 | 0.00 | 0.00 | 0.00 | 85 | 874.1 |
| 20260507215251 | 42 | 19 | 7.8 | 11.3 | 0.00 | 0.00 | 0.00 | 85 | 874.1 |
| 20260507215051 | 42 | 19 | 7.0 | 9.6 | 0.00 | 0.00 | 0.00 | 85 | 874.1 |
| 20260507214851 | 42 | 23 | 7.0 | 9.6 | 0.00 | 0.00 | 0.00 | 85 | 874.2 |
| 20260507214651 | 43 | 21 | 6.1 | 8.7 | 0.00 | 0.00 | 0.00 | 85 | 874.2 |
| 20260507214450 | 43 | 18 | 6.1 | 9.6 | 0.00 | 0.00 | 0.00 | 85 | 874.3 |
| 20260507214249 | 43 | 22 | 6.1 | 9.6 | 0.00 | 0.00 | 0.00 | 85 | 874.2 |
| 20260507214049 | 43 | 20 | 4.3 | 6.1 | 0.00 | 0.00 | 0.00 | 85 | 874.2 |
| 20260507213849 | 43 | 19 | 6.1 | 9.6 | 0.00 | 0.00 | 0.00 | 85 | 874.2 |
| 20260507213649 | 43 | 27 | 7.8 | 9.6 | 0.00 | 0.00 | 0.00 | 85 | 874.2 |
| 20260507213449 | 43 | 18 | 7.8 | 9.6 | 0.00 | 0.00 | 0.00 | 85 | 874.1 |
| 20260507213249 | 43 | 359 | 7.0 | 9.6 | 0.00 | 0.00 | 0.00 | 85 | 874.1 |
| 20260507213049 | 44 | 315 | 5.2 | 9.6 | 0.00 | 0.00 | 0.00 | 85 | 874.1 |
| 20260507212849 | 44 | 297 | 3.5 | 5.2 | 0.00 | 0.00 | 0.00 | 85 | 874.1 |
| 20260507212649 | 44 | 303 | 3.5 | 5.2 | 0.00 | 0.00 | 0.00 | 85 | 874.1 |
| 20260507212449 | 44 | 273 | 3.5 | 6.1 | 0.00 | 0.00 | 0.00 | 85 | 874.0 |
| 20260507212247 | 44 | 248 | 2.6 | 4.3 | 0.00 | 0.00 | 0.00 | 85 | 874.0 |
| 20260507212047 | 44 | 240 | 2.6 | 4.3 | 0.00 | 0.00 | 0.00 | 85 | 874.0 |
| 20260507211847 | 44 | 228 | 1.7 | 4.3 | 0.00 | 0.00 | 0.00 | 85 | 874.0 |
| 20260507211647 | 44 | 226 | 2.6 | 4.3 | 0.00 | 0.00 | 0.00 | 85 | 873.9 |
| 20260507211447 | 44 | 235 | 2.6 | 4.3 | 0.00 | 0.00 | 0.00 | 85 | 873.9 |
| 20260507211247 | 44 | 249 | 3.5 | 5.2 | 0.00 | 0.00 | 0.00 | 85 | 873.9 |
| 20260507211047 | 44 | 246 | 4.3 | 5.2 | 0.00 | 0.00 | 0.00 | 85 | 873.9 |
| 20260507210847 | 43 | 241 | 3.5 | 4.3 | 0.00 | 0.00 | 0.00 | 85 | 873.9 |
| 20260507210647 | 43 | 242 | 3.5 | 4.3 | 0.00 | 0.00 | 0.00 | 85 | 873.9 |
| 20260507210447 | 43 | 246 | 3.5 | 4.3 | 0.00 | 0.00 | 0.00 | 85 | 873.9 |
| 20260507210245 | 43 | 256 | 3.5 | 5.2 | 0.00 | 0.00 | 0.00 | 85 | 873.9 |
| 20260507210045 | 43 | 255 | 4.3 | 6.1 | 0.00 | 0.00 | 0.00 | 85 | 873.8 |
| 20260507205845 | 43 | 249 | 5.2 | 6.1 | 0.00 | 0.00 | 0.00 | 85 | 873.8 |
| 20260507205645 | 44 | 248 | 5.2 | 6.1 | 0.00 | 0.00 | 0.00 | 85 | 873.8 |
| 20260507205445 | 44 | 251 | 4.3 | 5.2 | 0.00 | 0.00 | 0.00 | 85 | 873.8 |
| 20260507205245 | 44 | 257 | 4.3 | 6.1 | 0.00 | 0.00 | 0.00 | 85 | 873.8 |
| 20260507205045 | 43 | 259 | 5.2 | 7.8 | 0.00 | 0.00 | 0.00 | 85 | 873.8 |
| 20260507204845 | 43 | 260 | 5.2 | 7.8 | 0.00 | 0.00 | 0.00 | 85 | 873.8 |
| 20260507204645 | 43 | 257 | 5.2 | 7.0 | 0.00 | 0.00 | 0.00 | 85 | 873.8 |
| 20260507204443 | 43 | 244 | 6.1 | 7.0 | 0.00 | 0.00 | 0.00 | 85 | 873.8 |
| 20260507204241 | 43 | 242 | 7.0 | 7.8 | 0.00 | 0.00 | 0.00 | 85 | 873.8 |
| 20260507204041 | 44 | 245 | 6.1 | 7.0 | 0.00 | 0.00 | 0.00 | 85 | 873.8 |
| 20260507203841 | 44 | 245 | 5.2 | 7.0 | 0.00 | 0.00 | 0.00 | 84 | 873.8 |
| 20260507203641 | 44 | 247 | 7.0 | 8.7 | 0.00 | 0.00 | 0.00 | 84 | 873.8 |
| 20260507203441 | 44 | 251 | 7.0 | 8.7 | 0.00 | 0.00 | 0.00 | 84 | 873.7 |
| 20260507203232 | 44 | 247 | 7.0 | 8.7 | 0.00 | 0.00 | 0.00 | 84 | 873.7 |
| 20260507203032 | 44 | 247 | 7.0 | 8.7 | 0.00 | 0.00 | 0.00 | 84 | 873.7 |
| 20260507202832 | 43 | 243 | 7.8 | 8.7 | 0.00 | 0.00 | 0.00 | 84 | 873.7 |
| 20260507202632 | 43 | 248 | 8.7 | 10.4 | 0.00 | 0.00 | 0.00 | 84 | 873.7 |
| 20260507202432 | 43 | 248 | 8.7 | 10.4 | 0.00 | 0.00 | 0.00 | 84 | 873.7 |
| 20260507202230 | 43 | 248 | 8.7 | 10.4 | 0.00 | 0.00 | 0.00 | 84 | 873.7 |
| 20260507202030 | 43 | 253 | 8.7 | 10.4 | 0.00 | 0.00 | 0.00 | 84 | 873.7 |
| 20260507201830 | 43 | 257 | 8.7 | 10.4 | 0.00 | 0.00 | 0.00 | 84 | 873.7 |
| 20260507201630 | 43 | 252 | 8.7 | 10.4 | 0.00 | 0.00 | 0.00 | 84 | 873.7 |
| 20260507201430 | 43 | 245 | 8.7 | 10.4 | 0.00 | 0.00 | 0.00 | 84 | 873.7 |
| 20260507201228 | 43 | 244 | 7.0 | 8.7 | 0.00 | 0.00 | 0.00 | 84 | 873.7 |
| 20260507201028 | 43 | 254 | 7.0 | 8.7 | 0.00 | 0.00 | 0.00 | 84 | 873.7 |
| 20260507200828 | 43 | 247 | 7.8 | 11.3 | 0.00 | 0.00 | 0.00 | 84 | 873.7 |
| 20260507200628 | 43 | 250 | 7.0 | 8.7 | 0.00 | 0.00 | 0.00 | 84 | 873.7 |
| 20260507200429 | 44 | 256 | 7.0 | 9.6 | 0.00 | 0.00 | 0.00 | 84 | 873.7 |
| 20260507200226 | 44 | 249 | 7.8 | 9.6 | 0.00 | 0.00 | 0.00 | 83 | 873.7 |
| 20260507200026 | 44 | 254 | 7.8 | 9.6 | 0.00 | 0.00 | 0.00 | 83 | 873.7 |
| 20260507195826 | 44 | 257 | 7.0 | 9.6 | 0.00 | 0.00 | 0.00 | 83 | 873.7 |
| 20260507195626 | 44 | 250 | 7.0 | 8.7 | 0.00 | 0.00 | 0.00 | 83 | 873.7 |
| 20260507195426 | 44 | 251 | 7.0 | 8.7 | 0.00 | 0.00 | 0.00 | 83 | 873.7 |
| 20260507195226 | 44 | 246 | 7.0 | 8.7 | 0.00 | 0.00 | 0.00 | 83 | 873.7 |
| 20260507195026 | 44 | 240 | 7.0 | 9.6 | 0.00 | 0.00 | 0.00 | 83 | 873.7 |
| 20260507194827 | 44 | 239 | 7.0 | 9.6 | 0.00 | 0.00 | 0.00 | 83 | 873.7 |
| 20260507194626 | 45 | 243 | 7.0 | 10.4 | 0.00 | 0.00 | 0.00 | 83 | 873.6 |
| 20260507194426 | 45 | 247 | 7.0 | 10.4 | 0.00 | 0.00 | 0.00 | 82 | 873.6 |
| 20260507194224 | 45 | 239 | 5.2 | 8.7 | 0.00 | 0.00 | 0.00 | 82 | 873.6 |
| 20260507194024 | 45 | 249 | 7.0 | 8.7 | 0.00 | 0.00 | 0.00 | 82 | 873.6 |
| 20260507193824 | 45 | 253 | 5.2 | 8.7 | 0.00 | 0.00 | 0.00 | 82 | 873.6 |
| 20260507193622 | 46 | 229 | 6.1 | 9.6 | 0.00 | 0.00 | 0.00 | 82 | 873.5 |
| 20260507193423 | 46 | 221 | 7.8 | 10.4 | 0.00 | 0.00 | 0.00 | 82 | 873.4 |
| 20260507193222 | 45 | 217 | 8.7 | 12.2 | 0.00 | 0.00 | 0.00 | 82 | 873.4 |
| 20260507193023 | 46 | 212 | 8.7 | 12.2 | 0.00 | 0.00 | 0.00 | 82 | 873.4 |
| 20260507192823 | 46 | 211 | 8.7 | 11.3 | 0.00 | 0.00 | 0.00 | 82 | 873.5 |
| 20260507192623 | 46 | 210 | 9.6 | 11.3 | 0.00 | 0.00 | 0.00 | 81 | 873.4 |
| 20260507192423 | 46 | 209 | 9.6 | 11.3 | 0.00 | 0.00 | 0.00 | 81 | 873.4 |
| 20260507192221 | 46 | 211 | 9.6 | 13.9 | 0.00 | 0.00 | 0.00 | 81 | 873.4 |
| 20260507192021 | 45 | 213 | 10.4 | 13.9 | 0.00 | 0.00 | 0.00 | 81 | 873.4 |
| 20260507191821 | 45 | 214 | 10.4 | 13.9 | 0.00 | 0.00 | 0.00 | 81 | 873.4 |
| 20260507191621 | 45 | 211 | 9.6 | 11.3 | 0.00 | 0.00 | 0.00 | 81 | 873.3 |
| 20260507191421 | 45 | 210 | 9.6 | 13.0 | 0.00 | 0.00 | 0.00 | 81 | 873.3 |
| 20260507191221 | 45 | 211 | 9.6 | 12.2 | 0.00 | 0.00 | 0.00 | 81 | 873.3 |
| 20260507191021 | 45 | 211 | 8.7 | 12.2 | 0.00 | 0.00 | 0.00 | 81 | 873.3 |
| 20260507190821 | 45 | 208 | 7.0 | 12.2 | 0.00 | 0.00 | 0.00 | 81 | 873.3 |
| 20260507190621 | 45 | 203 | 7.0 | 10.4 | 0.00 | 0.00 | 0.00 | 81 | 873.3 |
| 20260507190421 | 45 | 210 | 7.0 | 9.6 | 0.00 | 0.00 | 0.00 | 81 | 873.3 |
| 20260507190219 | 46 | 214 | 7.0 | 11.3 | 0.00 | 0.00 | 0.00 | 81 | 873.3 |
| 20260507190019 | 46 | 214 | 7.0 | 8.7 | 0.00 | 0.00 | 0.00 | 81 | 873.3 |
| 20260507185819 | 46 | 213 | 7.8 | 10.4 | 0.00 | 0.00 | 0.00 | 80 | 873.2 |
| 20260507185619 | 46 | 212 | 8.7 | 12.2 | 0.00 | 0.00 | 0.00 | 80 | 873.2 |
| 20260507185419 | 46 | 210 | 9.6 | 14.8 | 0.00 | 0.00 | 0.00 | 80 | 873.2 |
| 20260507185219 | 46 | 213 | 10.4 | 14.8 | 0.00 | 0.00 | 0.00 | 80 | 873.1 |
| 20260507185020 | 46 | 213 | 9.6 | 13.0 | 0.00 | 0.00 | 0.00 | 80 | 873.1 |
| 20260507184819 | 46 | 210 | 9.6 | 13.0 | 0.00 | 0.00 | 0.00 | 80 | 873.1 |
| 20260507184619 | 46 | 210 | 10.4 | 13.9 | 0.00 | 0.00 | 0.00 | 80 | 873.1 |
| 20260507184419 | 46 | 204 | 10.4 | 13.9 | 0.00 | 0.00 | 0.00 | 80 | 873.0 |
| 20260507184217 | 46 | 211 | 9.6 | 13.9 | 0.00 | 0.00 | 0.00 | 80 | 873.0 |
| 20260507184017 | 46 | 210 | 10.4 | 14.8 | 0.00 | 0.00 | 0.00 | 81 | 873.0 |
| 20260507183817 | 46 | 208 | 9.6 | 14.8 | 0.00 | 0.00 | 0.00 | 81 | 872.9 |
| 20260507183617 | 46 | 203 | 7.8 | 11.3 | 0.00 | 0.00 | 0.00 | 81 | 872.9 |
| 20260507183417 | 46 | 208 | 7.8 | 10.4 | 0.00 | 0.00 | 0.00 | 81 | 872.9 |
| 20260507183217 | 45 | 212 | 7.8 | 9.6 | 0.00 | 0.00 | 0.00 | 81 | 872.9 |
| 20260507183017 | 46 | 199 | 7.8 | 12.2 | 0.00 | 0.00 | 0.00 | 82 | 872.9 |
| 20260507182815 | 46 | 195 | 8.7 | 12.2 | 0.00 | 0.00 | 0.00 | 81 | 872.9 |
| 20260507182615 | 46 | 199 | 8.7 | 11.3 | 0.00 | 0.00 | 0.00 | 82 | 872.9 |
| 20260507182415 | 46 | 192 | 8.7 | 13.0 | 0.00 | 0.00 | 0.00 | 82 | 872.9 |
| 20260507182213 | 46 | 191 | 8.7 | 13.0 | 0.00 | 0.00 | 0.00 | 82 | 872.9 |
| 20260507182013 | 46 | 198 | 9.6 | 13.0 | 0.00 | 0.00 | 0.00 | 82 | 872.9 |
| 20260507181813 | 46 | 194 | 9.6 | 16.5 | 0.00 | 0.00 | 0.00 | 82 | 872.9 |
| 20260507181613 | 46 | 193 | 9.6 | 16.5 | 0.00 | 0.00 | 0.00 | 82 | 872.8 |
| 20260507181413 | 46 | 192 | 9.6 | 12.2 | 0.00 | 0.00 | 0.00 | 82 | 872.8 |
| 20260507181213 | 46 | 190 | 9.6 | 12.2 | 0.00 | 0.00 | 0.00 | 82 | 872.8 |
| 20260507181013 | 46 | 191 | 10.4 | 13.9 | 0.00 | 0.00 | 0.00 | 82 | 872.8 |
| 20260507180813 | 46 | 187 | 10.4 | 13.9 | 0.00 | 0.00 | 0.00 | 82 | 872.8 |
| 20260507180613 | 46 | 186 | 10.4 | 13.9 | 0.00 | 0.00 | 0.00 | 82 | 872.8 |
| 20260507180413 | 46 | 188 | 10.4 | 13.9 | 0.00 | 0.00 | 0.00 | 82 | 872.8 |
| 20260507180202 | 46 | 188 | 9.6 | 13.9 | 0.00 | 0.00 | 0.00 | 82 | 872.7 |
| 20260507180001 | 46 | 194 | 9.6 | 12.2 | 0.00 | 0.00 | 0.00 | 82 | 872.7 |
| 20260507175802 | 46 | 191 | 10.4 | 13.0 | 0.00 | 0.00 | 0.00 | 82 | 872.7 |
| 20260507175601 | 46 | 188 | 10.4 | 13.0 | 0.00 | 0.00 | 0.00 | 82 | 872.7 |
| 20260507175401 | 46 | 188 | 9.6 | 13.0 | 0.00 | 0.00 | 0.00 | 82 | 872.7 |
| 20260507175201 | 46 | 189 | 10.4 | 13.0 | 0.00 | 0.00 | 0.00 | 82 | 872.7 |
| 20260507175001 | 46 | 186 | 10.4 | 12.2 | 0.00 | 0.00 | 0.00 | 82 | 872.7 |
| 20260507174801 | 46 | 184 | 8.7 | 11.3 | 0.00 | 0.00 | 0.00 | 82 | 872.7 |
| 20260507174601 | 46 | 187 | 9.6 | 13.0 | 0.00 | 0.00 | 0.00 | 82 | 872.7 |
| 20260507174401 | 46 | 189 | 9.6 | 12.2 | 0.00 | 0.00 | 0.00 | 82 | 872.7 |
| 20260507174159 | 46 | 187 | 9.6 | 12.2 | 0.00 | 0.00 | 0.00 | 82 | 872.7 |
| 20260507173959 | 46 | 187 | 9.6 | 13.0 | 0.00 | 0.00 | 0.00 | 81 | 872.7 |
| 20260507173759 | 46 | 185 | 10.4 | 13.0 | 0.00 | 0.00 | 0.00 | 81 | 872.7 |
| 20260507173559 | 46 | 190 | 10.4 | 14.8 | 0.00 | 0.00 | 0.00 | 81 | 872.7 |
| 20260507173359 | 46 | 190 | 10.4 | 14.8 | 0.00 | 0.00 | 0.00 | 81 | 872.7 |
| 20260507173159 | 46 | 192 | 12.2 | 15.6 | 0.00 | 0.00 | 0.00 | 81 | 872.7 |
| 20260507172958 | 46 | 189 | 12.2 | 15.6 | 0.00 | 0.00 | 0.00 | 81 | 872.7 |
| 20260507172758 | 46 | 192 | 12.2 | 15.6 | 0.00 | 0.00 | 0.00 | 81 | 872.7 |
| 20260507172558 | 46 | 194 | 12.2 | 16.5 | 0.00 | 0.00 | 0.00 | 80 | 872.6 |
| 20260507172358 | 46 | 195 | 11.3 | 14.8 | 0.00 | 0.00 | 0.00 | 80 | 872.6 |
| 20260507172156 | 46 | 189 | 11.3 | 14.8 | 0.00 | 0.00 | 0.00 | 80 | 872.6 |
| 20260507171954 | 46 | 189 | 12.2 | 16.5 | 0.00 | 0.00 | 0.00 | 80 | 872.6 |
| 20260507171754 | 46 | 191 | 11.3 | 14.8 | 0.00 | 0.00 | 0.00 | 80 | 872.6 |
| 20260507171554 | 46 | 192 | 11.3 | 14.8 | 0.00 | 0.00 | 0.00 | 80 | 872.7 |
| 20260507171354 | 46 | 190 | 10.4 | 13.0 | 0.00 | 0.00 | 0.00 | 80 | 872.6 |
| 20260507171154 | 46 | 190 | 10.4 | 13.0 | 0.00 | 0.00 | 0.00 | 80 | 872.6 |
| 20260507170954 | 46 | 191 | 10.4 | 13.0 | 0.00 | 0.00 | 0.00 | 80 | 872.6 |
| 20260507170754 | 46 | 187 | 9.6 | 12.2 | 0.00 | 0.00 | 0.00 | 80 | 872.6 |
| 20260507170554 | 46 | 186 | 10.4 | 13.0 | 0.00 | 0.00 | 0.00 | 80 | 872.6 |
| 20260507170354 | 46 | 188 | 10.4 | 13.0 | 0.00 | 0.00 | 0.00 | 80 | 872.6 |
| 20260507170152 | 46 | 188 | 9.6 | 12.2 | 0.00 | 0.00 | 0.00 | 80 | 872.5 |
| 20260507165952 | 46 | 190 | 10.4 | 13.0 | 0.00 | 0.00 | 0.00 | 80 | 872.5 |
| 20260507165751 | 46 | 194 | 10.4 | 13.9 | 0.00 | 0.00 | 0.00 | 80 | 872.5 |
| 20260507165552 | 46 | 193 | 9.6 | 13.9 | 0.00 | 0.00 | 0.00 | 80 | 872.5 |
| 20260507165351 | 46 | 195 | 9.6 | 14.8 | 0.00 | 0.00 | 0.00 | 80 | 872.5 |
| 20260507165151 | 45 | 191 | 10.4 | 14.8 | 0.00 | 0.00 | 0.00 | 80 | 872.5 |
| 20260507164951 | 45 | 191 | 9.6 | 12.2 | 0.00 | 0.00 | 0.00 | 80 | 872.5 |
| 20260507164751 | 45 | 193 | 8.7 | 12.2 | 0.00 | 0.00 | 0.00 | 80 | 872.5 |
| 20260507164551 | 45 | 192 | 8.7 | 12.2 | 0.00 | 0.00 | 0.00 | 80 | 872.5 |
| 20260507164351 | 45 | 188 | 8.7 | 11.3 | 0.00 | 0.00 | 0.00 | 80 | 872.4 |
| 20260507164149 | 45 | 191 | 8.7 | 11.3 | 0.00 | 0.00 | 0.00 | 80 | 872.4 |
| 20260507163949 | 45 | 196 | 7.0 | 9.6 | 0.00 | 0.00 | 0.00 | 80 | 872.4 |
| 20260507163749 | 45 | 203 | 7.0 | 10.4 | 0.00 | 0.00 | 0.00 | 80 | 872.5 |
| 20260507163549 | 45 | 200 | 7.8 | 10.4 | 0.00 | 0.00 | 0.00 | 80 | 872.5 |
| 20260507163349 | 45 | 209 | 8.7 | 10.4 | 0.00 | 0.00 | 0.00 | 80 | 872.4 |
| 20260507163149 | 45 | 210 | 7.8 | 10.4 | 0.00 | 0.00 | 0.00 | 80 | 872.5 |
| 20260507162949 | 45 | 211 | 8.7 | 10.4 | 0.00 | 0.00 | 0.00 | 81 | 872.5 |
| 20260507162749 | 44 | 215 | 8.7 | 10.4 | 0.00 | 0.00 | 0.00 | 81 | 872.5 |
| 20260507162549 | 44 | 210 | 7.8 | 10.4 | 0.00 | 0.00 | 0.00 | 81 | 872.5 |
| 20260507162349 | 44 | 211 | 7.0 | 10.4 | 0.00 | 0.00 | 0.00 | 81 | 872.5 |
| 20260507162148 | 44 | 215 | 7.8 | 9.6 | 0.00 | 0.00 | 0.00 | 81 | 872.5 |
| 20260507161948 | 44 | 222 | 8.7 | 10.4 | 0.00 | 0.00 | 0.00 | 81 | 872.5 |
| 20260507161748 | 44 | 221 | 8.7 | 10.4 | 0.00 | 0.00 | 0.00 | 81 | 872.5 |
| 20260507161548 | 44 | 222 | 9.6 | 12.2 | 0.00 | 0.00 | 0.00 | 81 | 872.5 |
| 20260507161348 | 43 | 224 | 10.4 | 12.2 | 0.00 | 0.00 | 0.00 | 81 | 872.5 |
| 20260507161146 | 43 | 225 | 11.3 | 13.9 | 0.00 | 0.00 | 0.00 | 81 | 872.5 |
| 20260507160946 | 43 | 223 | 12.2 | 13.9 | 0.00 | 0.00 | 0.00 | 81 | 872.6 |
| 20260507160745 | 43 | 223 | 12.2 | 13.9 | 0.00 | 0.00 | 0.00 | 81 | 872.6 |
| 20260507160545 | 43 | 221 | 12.2 | 16.5 | 0.00 | 0.00 | 0.00 | 81 | 872.6 |
| 20260507160345 | 44 | 221 | 10.4 | 16.5 | 0.00 | 0.00 | 0.00 | 81 | 872.6 |
| 20260507160143 | 44 | 213 | 11.3 | 15.6 | 0.00 | 0.00 | 0.00 | 81 | 872.6 |
| 20260507155943 | 44 | 210 | 10.4 | 13.0 | 0.00 | 0.00 | 0.00 | 81 | 872.7 |
| 20260507155743 | 44 | 211 | 10.4 | 13.0 | 0.00 | 0.00 | 0.00 | 81 | 872.7 |
| 20260507155543 | 44 | 205 | 9.6 | 13.0 | 0.00 | 0.00 | 0.00 | 81 | 872.8 |
| 20260507155343 | 44 | 208 | 7.0 | 9.6 | 0.00 | 0.00 | 0.00 | 81 | 872.8 |
| 20260507155143 | 44 | 210 | 7.8 | 11.3 | 0.00 | 0.00 | 0.00 | 81 | 872.8 |
| 20260507154943 | 44 | 205 | 7.0 | 11.3 | 0.00 | 0.00 | 0.00 | 81 | 872.8 |
| 20260507154743 | 44 | 206 | 8.7 | 11.3 | 0.00 | 0.00 | 0.00 | 81 | 872.8 |
| 20260507154543 | 44 | 215 | 9.6 | 12.2 | 0.00 | 0.00 | 0.00 | 81 | 872.8 |
| 20260507154343 | 45 | 211 | 10.4 | 13.0 | 0.00 | 0.00 | 0.00 | 80 | 872.8 |
| 20260507154141 | 45 | 217 | 9.6 | 15.6 | 0.00 | 0.00 | 0.00 | 80 | 872.8 |
| 20260507153941 | 45 | 219 | 7.8 | 13.0 | 0.00 | 0.00 | 0.00 | 80 | 872.7 |
| 20260507153741 | 45 | 226 | 7.0 | 10.4 | 0.00 | 0.00 | 0.00 | 80 | 872.7 |
| 20260507153541 | 46 | 229 | 4.3 | 6.1 | 0.00 | 0.00 | 0.00 | 80 | 872.7 |
| 20260507153341 | 46 | 232 | 4.3 | 6.1 | 0.00 | 0.00 | 0.00 | 80 | 872.7 |
| 20260507153132 | 46 | 242 | 3.5 | 4.3 | 0.00 | 0.00 | 0.00 | 80 | 872.6 |
| 20260507152932 | 46 | 247 | 3.5 | 4.3 | 0.00 | 0.00 | 0.00 | 80 | 872.7 |
| 20260507152732 | 46 | 239 | 4.3 | 5.2 | 0.00 | 0.00 | 0.00 | 80 | 872.7 |
| 20260507152532 | 46 | 238 | 3.5 | 5.2 | 0.00 | 0.00 | 0.00 | 80 | 872.7 |
| 20260507152332 | 46 | 239 | 4.3 | 5.2 | 0.00 | 0.00 | 0.00 | 80 | 872.6 |
| 20260507152130 | 45 | 240 | 4.3 | 5.2 | 0.00 | 0.00 | 0.00 | 80 | 872.6 |
| 20260507151930 | 45 | 244 | 3.5 | 5.2 | 0.00 | 0.00 | 0.00 | 80 | 872.6 |
| 20260507151730 | 45 | 243 | 4.3 | 5.2 | 0.00 | 0.00 | 0.00 | 81 | 872.6 |
| 20260507151530 | 45 | 245 | 4.3 | 5.2 | 0.00 | 0.00 | 0.00 | 81 | 872.7 |
| 20260507151351 | 45 | 257 | 4.3 | 5.2 | 0.00 | 0.00 | 0.00 | 80 | 872.6 |
| 20260507151330 | 45 | 252 | 4.3 | 5.2 | 0.00 | 0.00 | 0.00 | 80 | 872.6 |
| 20260507151129 | 45 | 252 | 4.3 | 5.2 | 0.00 | 0.00 | 0.00 | 81 | 872.6 |
| 20260507150929 | 45 | 257 | 4.3 | 5.2 | 0.00 | 0.00 | 0.00 | 80 | 872.6 |
| 20260507150729 | 45 | 265 | 5.2 | 6.1 | 0.00 | 0.00 | 0.00 | 80 | 872.6 |
| 20260507150529 | 45 | 268 | 5.2 | 6.1 | 0.00 | 0.00 | 0.00 | 81 | 872.6 |
| 20260507150327 | 46 | 258 | 6.1 | 7.0 | 0.00 | 0.00 | 0.00 | 81 | 872.6 |
| 20260507150125 | 46 | 251 | 7.0 | 10.4 | 0.00 | 0.00 | 0.00 | 81 | 872.7 |
| 20260507145925 | 46 | 239 | 8.7 | 12.2 | 0.00 | 0.00 | 0.00 | 80 | 872.7 |
| 20260507145725 | 47 | 240 | 7.8 | 9.6 | 0.00 | 0.00 | 0.00 | 80 | 872.7 |
| 20260507145525 | 47 | 259 | 5.2 | 8.7 | 0.00 | 0.00 | 0.00 | 80 | 872.7 |
| 20260507145429 | 47 | 267 | 2.6 | 3.5 | 0.00 | 0.00 | 0.00 | 80 | 872.6 |
| 20260507145325 | 47 | 267 | 2.6 | 3.5 | 0.00 | 0.00 | 0.00 | 80 | 872.6 |
| 20260507145125 | 48 | 297 | 1.7 | 4.3 | 0.00 | 0.00 | 0.00 | 80 | 872.6 |
| 20260507144925 | 48 | 280 | 0.9 | 4.3 | 0.00 | 0.00 | 0.00 | 80 | 872.6 |
| 20260507144725 | 48 | 262 | 1.7 | 2.6 | 0.00 | 0.00 | 0.00 | 79 | 872.5 |
| 20260507144526 | 48 | 239 | 1.7 | 3.5 | 0.00 | 0.00 | 0.00 | 79 | 872.5 |
| 20260507144325 | 48 | 223 | 2.6 | 4.3 | 0.00 | 0.00 | 0.00 | 79 | 872.5 |
| 20260507144123 | 48 | 220 | 2.6 | 4.3 | 0.00 | 0.00 | 0.00 | 79 | 872.5 |
| 20260507143923 | 48 | 218 | 2.6 | 4.3 | 0.00 | 0.00 | 0.00 | 79 | 872.5 |
| 20260507143723 | 48 | 199 | 3.5 | 4.3 | 0.00 | 0.00 | 0.00 | 79 | 872.5 |
| 20260507143523 | 48 | 186 | 4.3 | 6.1 | 0.00 | 0.00 | 0.00 | 79 | 872.6 |
| 20260507143323 | 48 | 183 | 4.3 | 6.1 | 0.00 | 0.00 | 0.00 | 79 | 872.5 |
| 20260507143311 | 48 | 188 | 5.2 | 7.8 | 0.00 | 0.00 | 0.00 | 79 | 872.5 |
| 20260507143121 | 48 | 186 | 4.3 | 6.1 | 0.00 | 0.00 | 0.00 | 79 | 872.5 |
| 20260507142921 | 48 | 188 | 5.2 | 7.8 | 0.00 | 0.00 | 0.00 | 79 | 872.5 |
| 20260507142721 | 48 | 191 | 5.2 | 7.8 | 0.00 | 0.00 | 0.00 | 79 | 872.5 |
| 20260507142522 | 48 | 193 | 6.1 | 7.8 | 0.00 | 0.00 | 0.00 | 79 | 872.5 |
| 20260507142321 | 48 | 194 | 6.1 | 7.8 | 0.00 | 0.00 | 0.00 | 79 | 872.5 |
| 20260507142119 | 48 | 188 | 5.2 | 7.0 | 0.00 | 0.00 | 0.00 | 79 | 872.5 |
| 20260507141919 | 48 | 193 | 4.3 | 6.1 | 0.00 | 0.00 | 0.00 | 79 | 872.5 |
| 20260507141720 | 48 | 188 | 5.2 | 7.0 | 0.00 | 0.00 | 0.00 | 79 | 872.5 |
| 20260507141519 | 48 | 183 | 5.2 | 7.0 | 0.00 | 0.00 | 0.00 | 79 | 872.5 |
| 20260507141319 | 48 | 185 | 4.3 | 7.0 | 0.00 | 0.00 | 0.00 | 79 | 872.5 |
| 20260507141119 | 48 | 189 | 4.3 | 6.1 | 0.00 | 0.00 | 0.00 | 78 | 872.5 |
| 20260507140919 | 48 | 183 | 4.3 | 5.2 | 0.00 | 0.00 | 0.00 | 78 | 872.6 |
| 20260507140719 | 49 | 178 | 4.3 | 5.2 | 0.00 | 0.00 | 0.00 | 78 | 872.6 |
| 20260507140519 | 49 | 183 | 3.5 | 4.3 | 0.00 | 0.00 | 0.00 | 78 | 872.6 |
| 20260507140319 | 49 | 186 | 3.5 | 5.2 | 0.00 | 0.00 | 0.00 | 78 | 872.7 |
| 20260507140117 | 49 | 204 | 2.6 | 5.2 | 0.00 | 0.00 | 0.00 | 78 | 872.7 |
| 20260507135917 | 49 | 215 | 1.7 | 3.5 | 0.00 | 0.00 | 0.00 | 78 | 872.7 |
| 20260507135718 | 49 | 216 | 1.7 | 3.5 | 0.00 | 0.00 | 0.00 | 78 | 872.7 |
| 20260507135515 | 49 | 211 | 1.7 | 3.5 | 0.00 | 0.00 | 0.00 | 78 | 872.8 |
| 20260507135315 | 49 | 211 | 2.6 | 3.5 | 0.00 | 0.00 | 0.00 | 78 | 872.8 |
| 20260507135115 | 49 | 203 | 1.7 | 2.6 | 0.00 | 0.00 | 0.00 | 78 | 872.8 |
| 20260507134915 | 49 | 196 | 1.7 | 1.7 | 0.00 | 0.00 | 0.00 | 78 | 872.8 |
| 20260507134715 | 49 | 202 | 1.7 | 3.5 | 0.00 | 0.00 | 0.00 | 78 | 872.8 |
| 20260507134515 | 49 | 215 | 1.7 | 3.5 | 0.00 | 0.00 | 0.00 | 78 | 872.8 |
| 20260507134315 | 49 | 215 | 2.6 | 4.3 | 0.00 | 0.00 | 0.00 | 78 | 872.8 |
| 20260507134113 | 49 | 208 | 2.6 | 4.3 | 0.00 | 0.00 | 0.00 | 78 | 872.8 |
| 20260507133913 | 49 | 208 | 2.6 | 4.3 | 0.00 | 0.00 | 0.00 | 78 | 872.8 |
| 20260507133713 | 49 | 202 | 1.7 | 4.3 | 0.00 | 0.00 | 0.00 | 78 | 872.8 |
| 20260507133513 | 49 | 196 | 3.5 | 5.2 | 0.00 | 0.00 | 0.00 | 78 | 872.8 |
| 20260507133313 | 49 | 196 | 3.5 | 5.2 | 0.00 | 0.00 | 0.00 | 78 | 872.8 |
| 20260507133113 | 49 | 212 | 1.7 | 4.3 | 0.00 | 0.00 | 0.00 | 78 | 872.8 |
| 20260507132913 | 49 | 204 | 3.5 | 6.1 | 0.00 | 0.00 | 0.00 | 78 | 872.8 |
| 20260507132713 | 49 | 185 | 4.3 | 7.0 | 0.00 | 0.00 | 0.00 | 78 | 872.8 |
| 20260507132513 | 49 | 180 | 6.1 | 7.0 | 0.00 | 0.00 | 0.00 | 78 | 872.8 |
| 20260507132313 | 49 | 179 | 6.1 | 7.0 | 0.00 | 0.00 | 0.00 | 79 | 872.8 |
| 20260507132111 | 49 | 185 | 4.3 | 7.0 | 0.00 | 0.00 | 0.00 | 79 | 872.8 |
| 20260507131911 | 49 | 192 | 3.5 | 7.8 | 0.00 | 0.00 | 0.00 | 78 | 872.8 |
| 20260507131711 | 49 | 203 | 3.5 | 6.1 | 0.00 | 0.00 | 0.00 | 78 | 872.8 |
| 20260507131511 | 49 | 217 | 3.5 | 6.1 | 0.00 | 0.00 | 0.00 | 78 | 872.8 |
| 20260507131311 | 49 | 220 | 4.3 | 7.0 | 0.00 | 0.00 | 0.00 | 78 | 872.8 |
| 20260507131111 | 49 | 214 | 3.5 | 5.2 | 0.00 | 0.00 | 0.00 | 78 | 872.7 |
| 20260507130911 | 49 | 216 | 3.5 | 5.2 | 0.00 | 0.00 | 0.00 | 78 | 872.7 |
| 20260507130711 | 49 | 211 | 3.5 | 5.2 | 0.00 | 0.00 | 0.00 | 78 | 872.7 |
| 20260507130512 | 49 | 219 | 3.5 | 6.1 | 0.00 | 0.00 | 0.00 | 78 | 872.7 |
| 20260507130312 | 49 | 230 | 3.5 | 6.1 | 0.00 | 0.00 | 0.00 | 79 | 872.7 |
| 20260507130100 | 48 | 221 | 3.5 | 5.2 | 0.00 | 0.00 | 0.00 | 79 | 872.7 |
| 20260507125900 | 48 | 209 | 5.2 | 8.7 | 0.00 | 0.00 | 0.00 | 79 | 872.7 |
| 20260507125700 | 48 | 217 | 5.2 | 8.7 | 0.00 | 0.00 | 0.00 | 79 | 872.7 |
| 20260507125500 | 48 | 224 | 4.3 | 7.0 | 0.00 | 0.00 | 0.00 | 79 | 872.7 |
| 20260507125300 | 48 | 224 | 3.5 | 6.1 | 0.00 | 0.00 | 0.00 | 79 | 872.7 |
| 20260507125100 | 48 | 222 | 3.5 | 6.1 | 0.00 | 0.00 | 0.00 | 79 | 872.7 |
| 20260507124900 | 48 | 219 | 3.5 | 6.1 | 0.00 | 0.00 | 0.00 | 79 | 872.7 |
| 20260507124658 | 48 | 223 | 3.5 | 6.1 | 0.00 | 0.00 | 0.00 | 79 | 872.7 |
| 20260507124458 | 48 | 236 | 3.5 | 5.2 | 0.00 | 0.00 | 0.00 | 79 | 872.7 |
| 20260507124258 | 48 | 228 | 2.6 | 4.3 | 0.00 | 0.00 | 0.00 | 79 | 872.7 |
| 20260507124057 | 48 | 238 | 2.6 | 3.5 | 0.00 | 0.00 | 0.00 | 79 | 872.8 |
| 20260507123857 | 49 | 239 | 3.5 | 4.3 | 0.00 | 0.00 | 0.00 | 79 | 872.8 |
| 20260507123657 | 49 | 220 | 2.6 | 3.5 | 0.00 | 0.00 | 0.00 | 79 | 872.8 |
| 20260507123457 | 49 | 205 | 2.6 | 5.2 | 0.00 | 0.00 | 0.00 | 79 | 872.8 |
| 20260507123257 | 49 | 185 | 3.5 | 5.2 | 0.00 | 0.00 | 0.00 | 79 | 872.7 |
| 20260507123056 | 49 | 200 | 4.3 | 8.7 | 0.00 | 0.00 | 0.00 | 79 | 872.7 |
| 20260507122856 | 49 | 212 | 4.3 | 8.7 | 0.00 | 0.00 | 0.00 | 79 | 872.7 |
| 20260507122656 | 49 | 212 | 5.2 | 7.8 | 0.00 | 0.00 | 0.00 | 79 | 872.7 |
| 20260507122456 | 49 | 202 | 5.2 | 7.8 | 0.00 | 0.00 | 0.00 | 79 | 872.7 |
| 20260507122256 | 48 | 200 | 3.5 | 6.1 | 0.00 | 0.00 | 0.00 | 79 | 872.6 |
| 20260507122054 | 48 | 208 | 4.3 | 7.0 | 0.00 | 0.00 | 0.00 | 79 | 872.6 |
| 20260507121854 | 48 | 204 | 4.3 | 7.0 | 0.00 | 0.00 | 0.00 | 79 | 872.6 |
| 20260507121654 | 48 | 204 | 5.2 | 7.0 | 0.00 | 0.00 | 0.00 | 79 | 872.6 |
| 20260507121454 | 48 | 210 | 5.2 | 8.7 | 0.00 | 0.00 | 0.00 | 79 | 872.6 |
| 20260507121254 | 48 | 213 | 5.2 | 7.8 | 0.00 | 0.00 | 0.00 | 79 | 872.6 |
| 20260507121054 | 48 | 205 | 6.1 | 8.7 | 0.00 | 0.00 | 0.00 | 79 | 872.6 |
| 20260507120854 | 48 | 205 | 6.1 | 8.7 | 0.00 | 0.00 | 0.00 | 79 | 872.6 |
| 20260507120654 | 48 | 211 | 5.2 | 7.0 | 0.00 | 0.00 | 0.00 | 79 | 872.6 |
| 20260507120454 | 48 | 210 | 4.3 | 6.1 | 0.00 | 0.00 | 0.00 | 79 | 872.7 |
| 20260507120254 | 48 | 212 | 5.2 | 7.0 | 0.00 | 0.00 | 0.00 | 79 | 872.7 |
| 20260507120052 | 48 | 216 | 4.3 | 6.1 | 0.00 | 0.00 | 0.00 | 79 | 872.7 |
| 20260507115852 | 48 | 216 | 4.3 | 6.1 | 0.00 | 0.00 | 0.00 | 79 | 872.7 |
| 20260507115652 | 47 | 215 | 5.2 | 7.0 | 0.00 | 0.00 | 0.00 | 79 | 872.7 |
| 20260507115453 | 47 | 222 | 6.1 | 7.0 | 0.00 | 0.00 | 0.00 | 79 | 872.7 |
| 20260507115253 | 47 | 223 | 7.0 | 7.8 | 0.00 | 0.00 | 0.00 | 79 | 872.7 |
| 20260507115053 | 47 | 222 | 7.0 | 7.8 | 0.00 | 0.00 | 0.00 | 79 | 872.7 |
| 20260507114853 | 47 | 220 | 6.1 | 7.8 | 0.00 | 0.00 | 0.00 | 79 | 872.7 |
| 20260507114653 | 47 | 215 | 5.2 | 7.0 | 0.00 | 0.00 | 0.00 | 79 | 872.7 |
| 20260507114453 | 47 | 211 | 6.1 | 8.7 | 0.00 | 0.00 | 0.00 | 79 | 872.7 |
| 20260507114253 | 47 | 216 | 6.1 | 7.0 | 0.00 | 0.00 | 0.00 | 79 | 872.7 |
| 20260507114051 | 47 | 215 | 5.2 | 6.1 | 0.00 | 0.00 | 0.00 | 78 | 872.7 |
| 20260507113849 | 48 | 216 | 4.3 | 5.2 | 0.00 | 0.00 | 0.00 | 78 | 872.7 |
| 20260507113649 | 48 | 220 | 4.3 | 6.1 | 0.00 | 0.00 | 0.00 | 78 | 872.6 |
| 20260507113449 | 48 | 224 | 5.2 | 7.8 | 0.00 | 0.00 | 0.00 | 78 | 872.7 |
| 20260507113249 | 48 | 221 | 5.2 | 7.0 | 0.00 | 0.00 | 0.00 | 78 | 872.7 |
| 20260507113049 | 48 | 219 | 5.2 | 7.0 | 0.00 | 0.00 | 0.00 | 78 | 872.7 |
| 20260507112849 | 48 | 215 | 5.2 | 7.0 | 0.00 | 0.00 | 0.00 | 78 | 872.7 |
| 20260507112649 | 48 | 209 | 4.3 | 5.2 | 0.00 | 0.00 | 0.00 | 78 | 872.7 |
| 20260507112449 | 48 | 199 | 3.5 | 5.2 | 0.00 | 0.00 | 0.00 | 78 | 872.6 |
| 20260507112249 | 48 | 207 | 4.3 | 6.1 | 0.00 | 0.00 | 0.00 | 78 | 872.6 |
| 20260507112047 | 48 | 216 | 3.5 | 4.3 | 0.00 | 0.00 | 0.00 | 78 | 872.6 |
| 20260507111847 | 48 | 224 | 3.5 | 3.5 | 0.00 | 0.00 | 0.00 | 78 | 872.6 |
| 20260507111647 | 48 | 232 | 3.5 | 3.5 | 0.00 | 0.00 | 0.00 | 78 | 872.6 |
| 20260507111447 | 48 | 233 | 3.5 | 4.3 | 0.00 | 0.00 | 0.00 | 78 | 872.6 |
| 20260507111247 | 48 | 233 | 2.6 | 3.5 | 0.00 | 0.00 | 0.00 | 78 | 872.6 |
| 20260507111047 | 48 | 227 | 3.5 | 4.3 | 0.00 | 0.00 | 0.00 | 78 | 872.6 |
| 20260507110847 | 48 | 230 | 3.5 | 4.3 | 0.00 | 0.00 | 0.00 | 78 | 872.6 |
| 20260507110647 | 48 | 243 | 3.5 | 5.2 | 0.00 | 0.00 | 0.00 | 78 | 872.6 |
| 20260507110447 | 48 | 253 | 3.5 | 5.2 | 0.00 | 0.00 | 0.00 | 77 | 872.6 |
| 20260507110247 | 49 | 258 | 4.3 | 6.1 | 0.00 | 0.00 | 0.00 | 77 | 872.5 |
| 20260507110045 | 49 | 254 | 5.2 | 6.1 | 0.00 | 0.00 | 0.00 | 77 | 872.5 |
| 20260507105845 | 49 | 249 | 4.3 | 6.1 | 0.00 | 0.00 | 0.00 | 77 | 872.5 |
| 20260507105645 | 49 | 256 | 4.3 | 6.1 | 0.00 | 0.00 | 0.00 | 77 | 872.5 |
| 20260507105445 | 49 | 255 | 3.5 | 5.2 | 0.00 | 0.00 | 0.00 | 77 | 872.5 |
| 20260507105245 | 49 | 260 | 3.5 | 5.2 | 0.00 | 0.00 | 0.00 | 77 | 872.5 |
| 20260507105045 | 49 | 249 | 4.3 | 7.0 | 0.00 | 0.00 | 0.00 | 77 | 872.4 |
| 20260507104845 | 49 | 231 | 4.3 | 7.0 | 0.00 | 0.00 | 0.00 | 77 | 872.4 |
| 20260507104645 | 48 | 223 | 3.5 | 6.1 | 0.00 | 0.00 | 0.00 | 77 | 872.4 |
| 20260507104445 | 48 | 234 | 3.5 | 4.3 | 0.00 | 0.00 | 0.00 | 77 | 872.5 |
| 20260507104245 | 48 | 257 | 3.5 | 5.2 | 0.00 | 0.00 | 0.00 | 77 | 872.5 |
| 20260507104044 | 48 | 255 | 3.5 | 5.2 | 0.00 | 0.00 | 0.00 | 77 | 872.5 |
| 20260507103843 | 49 | 252 | 3.5 | 5.2 | 0.00 | 0.00 | 0.00 | 77 | 872.5 |
| 20260507103643 | 49 | 248 | 4.3 | 6.1 | 0.00 | 0.00 | 0.00 | 77 | 872.4 |
| 20260507103443 | 49 | 246 | 4.3 | 6.1 | 0.00 | 0.00 | 0.00 | 77 | 872.4 |
| 20260507103244 | 49 | 240 | 4.3 | 6.1 | 0.00 | 0.00 | 0.00 | 77 | 872.4 |
| 20260507103032 | 49 | 234 | 2.6 | 5.2 | 0.00 | 0.00 | 0.00 | 77 | 872.4 |
| 20260507102832 | 49 | 229 | 3.5 | 5.2 | 0.00 | 0.00 | 0.00 | 77 | 872.4 |
| 20260507102632 | 49 | 230 | 3.5 | 5.2 | 0.00 | 0.00 | 0.00 | 77 | 872.4 |
| 20260507102432 | 49 | 244 | 3.5 | 4.3 | 0.00 | 0.00 | 0.00 | 77 | 872.4 |
| 20260507102232 | 49 | 256 | 2.6 | 4.3 | 0.00 | 0.00 | 0.00 | 77 | 872.4 |
| 20260507102031 | 49 | 249 | 1.7 | 2.6 | 0.00 | 0.00 | 0.00 | 77 | 872.3 |
| 20260507101830 | 49 | 255 | 2.6 | 5.2 | 0.00 | 0.00 | 0.00 | 77 | 872.3 |
| 20260507101630 | 49 | 249 | 3.5 | 6.1 | 0.00 | 0.00 | 0.00 | 77 | 872.3 |
| 20260507101430 | 49 | 247 | 3.5 | 6.1 | 0.00 | 0.00 | 0.00 | 77 | 872.3 |
| 20260507101229 | 49 | 268 | 4.3 | 6.1 | 0.00 | 0.00 | 0.00 | 77 | 872.2 |
| 20260507101029 | 49 | 263 | 4.3 | 7.0 | 0.00 | 0.00 | 0.00 | 77 | 872.2 |
| 20260507100829 | 49 | 255 | 6.1 | 8.7 | 0.00 | 0.00 | 0.00 | 77 | 872.3 |
| 20260507100629 | 49 | 247 | 5.2 | 7.0 | 0.00 | 0.00 | 0.00 | 77 | 872.3 |
| 20260507100429 | 49 | 242 | 5.2 | 7.8 | 0.00 | 0.00 | 0.00 | 76 | 872.3 |
| 20260507100229 | 49 | 225 | 3.5 | 6.1 | 0.00 | 0.00 | 0.00 | 76 | 872.3 |
| 20260507100027 | 49 | 219 | 3.5 | 4.3 | 0.00 | 0.00 | 0.00 | 76 | 872.3 |
| 20260507095827 | 49 | 229 | 3.5 | 5.2 | 0.00 | 0.00 | 0.00 | 76 | 872.2 |
| 20260507095627 | 49 | 221 | 2.6 | 4.3 | 0.00 | 0.00 | 0.00 | 76 | 872.2 |
| 20260507095427 | 50 | 213 | 4.3 | 7.8 | 0.00 | 0.00 | 0.00 | 76 | 872.2 |
| 20260507095227 | 50 | 218 | 3.5 | 7.8 | 0.00 | 0.00 | 0.00 | 76 | 872.2 |
| 20260507095027 | 50 | 225 | 4.3 | 7.8 | 0.00 | 0.00 | 0.00 | 76 | 872.2 |
| 20260507094827 | 50 | 201 | 5.2 | 8.7 | 0.00 | 0.00 | 0.00 | 76 | 872.2 |
| 20260507094627 | 50 | 188 | 6.1 | 8.7 | 0.00 | 0.00 | 0.00 | 76 | 872.2 |
| 20260507094427 | 50 | 206 | 3.5 | 6.1 | 0.00 | 0.00 | 0.00 | 76 | 872.2 |
| 20260507094227 | 50 | 204 | 1.7 | 3.5 | 0.00 | 0.00 | 0.00 | 76 | 872.1 |
| 20260507094025 | 50 | 202 | 1.7 | 3.5 | 0.00 | 0.00 | 0.00 | 76 | 872.1 |
| 20260507093825 | 50 | 230 | 5.2 | 8.7 | 0.00 | 0.00 | 0.00 | 76 | 872.1 |
| 20260507093626 | 50 | 219 | 5.2 | 8.7 | 0.00 | 0.00 | 0.00 | 76 | 872.1 |
| 20260507093425 | 50 | 218 | 5.2 | 7.0 | 0.00 | 0.00 | 0.00 | 76 | 872.1 |
| 20260507093225 | 50 | 224 | 6.1 | 10.4 | 0.00 | 0.00 | 0.00 | 76 | 872.0 |
| 20260507093025 | 50 | 221 | 5.2 | 7.8 | 0.00 | 0.00 | 0.00 | 76 | 872.0 |
| 20260507092825 | 50 | 206 | 4.3 | 10.4 | 0.00 | 0.00 | 0.00 | 76 | 872.0 |
| 20260507092625 | 50 | 200 | 3.5 | 10.4 | 0.00 | 0.00 | 0.00 | 76 | 872.0 |
| 20260507092425 | 50 | 210 | 4.3 | 7.8 | 0.00 | 0.00 | 0.00 | 76 | 871.9 |
| 20260507092223 | 50 | 205 | 4.3 | 7.0 | 0.00 | 0.00 | 0.00 | 76 | 871.9 |
| 20260507092021 | 50 | 205 | 4.3 | 7.8 | 0.00 | 0.00 | 0.00 | 76 | 871.9 |
| 20260507091821 | 50 | 201 | 5.2 | 8.7 | 0.00 | 0.00 | 0.00 | 77 | 871.9 |
| 20260507091622 | 49 | 197 | 5.2 | 8.7 | 0.00 | 0.00 | 0.00 | 77 | 871.9 |
| 20260507091421 | 49 | 204 | 6.1 | 9.6 | 0.00 | 0.00 | 0.00 | 77 | 871.9 |
| 20260507091221 | 49 | 193 | 7.0 | 9.6 | 0.00 | 0.00 | 0.00 | 77 | 871.8 |
| 20260507091021 | 49 | 186 | 6.1 | 8.7 | 0.00 | 0.00 | 0.00 | 77 | 871.8 |
| 20260507090821 | 49 | 204 | 6.1 | 12.2 | 0.00 | 0.00 | 0.00 | 77 | 871.8 |
| 20260507090621 | 49 | 230 | 4.3 | 6.1 | 0.00 | 0.00 | 0.00 | 77 | 871.8 |
| 20260507090421 | 49 | 230 | 3.5 | 5.2 | 0.00 | 0.00 | 0.00 | 77 | 871.8 |
| 20260507090221 | 49 | 216 | 3.5 | 7.0 | 0.00 | 0.00 | 0.00 | 77 | 871.8 |
| 20260507090019 | 49 | 203 | 5.2 | 8.7 | 0.00 | 0.00 | 0.00 | 77 | 871.8 |
| 20260507085819 | 49 | 213 | 4.3 | 7.0 | 0.00 | 0.00 | 0.00 | 77 | 871.8 |
| 20260507085619 | 49 | 220 | 4.3 | 8.7 | 0.00 | 0.00 | 0.00 | 77 | 871.7 |
| 20260507085419 | 49 | 216 | 4.3 | 6.1 | 0.00 | 0.00 | 0.00 | 77 | 871.7 |
| 20260507085219 | 49 | 216 | 4.3 | 6.1 | 0.00 | 0.00 | 0.00 | 77 | 871.7 |
| 20260507085017 | 49 | 209 | 5.2 | 7.0 | 0.00 | 0.00 | 0.00 | 77 | 871.7 |
| 20260507084817 | 49 | 210 | 4.3 | 9.6 | 0.00 | 0.00 | 0.00 | 77 | 871.7 |
| 20260507084617 | 49 | 223 | 4.3 | 9.6 | 0.00 | 0.00 | 0.00 | 77 | 871.7 |
| 20260507084417 | 49 | 212 | 3.5 | 5.2 | 0.00 | 0.00 | 0.00 | 77 | 871.7 |
| 20260507084217 | 49 | 206 | 4.3 | 7.0 | 0.00 | 0.00 | 0.00 | 77 | 871.6 |
| 20260507084015 | 49 | 218 | 4.3 | 7.0 | 0.00 | 0.00 | 0.00 | 77 | 871.6 |
| 20260507083815 | 49 | 235 | 4.3 | 6.1 | 0.00 | 0.00 | 0.00 | 77 | 871.6 |
| 20260507083615 | 49 | 230 | 6.1 | 11.3 | 0.00 | 0.00 | 0.00 | 76 | 871.5 |
| 20260507083414 | 49 | 231 | 7.0 | 11.3 | 0.00 | 0.00 | 0.00 | 76 | 871.5 |
| 20260507083214 | 49 | 228 | 5.2 | 10.4 | 0.00 | 0.00 | 0.00 | 76 | 871.5 |
| 20260507083014 | 49 | 243 | 6.1 | 10.4 | 0.00 | 0.00 | 0.00 | 77 | 871.4 |
| 20260507082815 | 49 | 242 | 6.1 | 10.4 | 0.00 | 0.00 | 0.00 | 77 | 871.4 |
| 20260507082614 | 49 | 238 | 4.3 | 9.6 | 0.00 | 0.00 | 0.00 | 77 | 871.4 |
| 20260507082414 | 49 | 232 | 6.1 | 11.3 | 0.00 | 0.00 | 0.00 | 76 | 871.4 |
| 20260507082214 | 49 | 226 | 9.6 | 12.2 | 0.00 | 0.00 | 0.00 | 76 | 871.3 |
| 20260507082013 | 49 | 238 | 8.7 | 12.2 | 0.00 | 0.00 | 0.00 | 76 | 871.3 |
| 20260507081813 | 49 | 233 | 7.8 | 13.9 | 0.00 | 0.00 | 0.00 | 76 | 871.3 |
| 20260507081612 | 49 | 225 | 7.0 | 13.0 | 0.00 | 0.00 | 0.00 | 76 | 871.2 |
| 20260507081410 | 49 | 228 | 7.0 | 13.0 | 0.00 | 0.00 | 0.00 | 76 | 871.2 |
| 20260507081210 | 49 | 235 | 7.0 | 13.0 | 0.00 | 0.00 | 0.00 | 76 | 871.2 |
| 20260507081010 | 49 | 232 | 6.1 | 13.0 | 0.00 | 0.00 | 0.00 | 77 | 871.2 |
| 20260507080810 | 49 | 233 | 5.2 | 10.4 | 0.00 | 0.00 | 0.00 | 76 | 871.1 |
| 20260507080610 | 49 | 231 | 7.8 | 13.9 | 0.00 | 0.00 | 0.00 | 76 | 871.1 |
| 20260507080410 | 49 | 225 | 7.0 | 9.6 | 0.00 | 0.00 | 0.00 | 76 | 871.0 |
| 20260507080210 | 49 | 239 | 8.7 | 13.9 | 0.00 | 0.00 | 0.00 | 77 | 871.0 |
| 20260507080031 | 49 | 237 | 8.7 | 13.9 | 0.00 | 0.00 | 0.00 | 76 | 871.0 |
| 20260507075959 | 49 | 237 | 8.7 | 13.9 | 0.00 | 0.00 | 0.00 | 76 | 871.0 |
| 20260507075759 | 49 | 248 | 7.8 | 12.2 | 0.00 | 0.00 | 0.00 | 77 | 871.0 |
| 20260507075559 | 49 | 230 | 7.8 | 13.0 | 0.00 | 0.00 | 0.00 | 77 | 871.0 |
| 20260507075359 | 49 | 228 | 7.8 | 12.2 | 0.00 | 0.00 | 0.00 | 77 | 871.0 |
| 20260507075159 | 49 | 236 | 6.1 | 12.2 | 0.00 | 0.00 | 0.00 | 77 | 871.0 |
| 20260507074959 | 49 | 221 | 6.1 | 9.6 | 0.00 | 0.00 | 0.00 | 77 | 871.0 |
| 20260507074759 | 48 | 218 | 5.2 | 10.4 | 0.00 | 0.00 | 0.00 | 77 | 870.9 |
| 20260507074559 | 48 | 226 | 7.0 | 11.3 | 0.00 | 0.00 | 0.00 | 77 | 870.8 |
| 20260507074358 | 48 | 222 | 7.0 | 11.3 | 0.00 | 0.00 | 0.00 | 77 | 870.8 |
| 20260507073956 | 48 | 218 | 7.8 | 12.2 | 0.00 | 0.00 | 0.00 | 77 | 870.7 |
| 20260507073756 | 48 | 227 | 10.4 | 19.1 | 0.00 | 0.00 | 0.00 | 77 | 870.7 |
| 20260507073556 | 48 | 212 | 9.6 | 13.9 | 0.00 | 0.00 | 0.00 | 77 | 870.7 |
| 20260507073357 | 48 | 215 | 8.7 | 12.2 | 0.00 | 0.00 | 0.00 | 77 | 870.7 |
| 20260507073229 | 48 | 214 | 8.7 | 13.0 | 0.00 | 0.00 | 0.00 | 77 | 870.7 |
| 20260507073157 | 48 | 214 | 8.7 | 13.0 | 0.00 | 0.00 | 0.00 | 77 | 870.7 |
| 20260507072957 | 48 | 217 | 9.6 | 14.8 | 0.00 | 0.00 | 0.00 | 77 | 870.6 |
| 20260507072757 | 48 | 219 | 8.7 | 14.8 | 0.00 | 0.00 | 0.00 | 77 | 870.6 |
| 20260507072557 | 48 | 213 | 8.7 | 16.5 | 0.00 | 0.00 | 0.00 | 77 | 870.5 |
| 20260507072357 | 48 | 215 | 8.7 | 16.5 | 0.00 | 0.00 | 0.00 | 77 | 870.5 |
| 20260507072156 | 47 | 221 | 8.7 | 13.9 | 0.00 | 0.00 | 0.00 | 77 | 870.5 |
| 20260507071954 | 47 | 211 | 11.3 | 14.8 | 0.00 | 0.00 | 0.00 | 77 | 870.4 |
| 20260507071754 | 47 | 212 | 12.2 | 17.4 | 0.00 | 0.00 | 0.00 | 77 | 870.4 |
| 20260507071554 | 47 | 216 | 11.3 | 17.4 | 0.00 | 0.00 | 0.00 | 77 | 870.4 |
| 20260507071354 | 47 | 219 | 10.4 | 13.0 | 0.00 | 0.00 | 0.00 | 78 | 870.4 |
| 20260507071154 | 47 | 219 | 10.4 | 17.4 | 0.00 | 0.00 | 0.00 | 77 | 870.3 |
| 20260507070954 | 47 | 217 | 11.3 | 17.4 | 0.00 | 0.00 | 0.00 | 78 | 870.3 |
| 20260507070754 | 47 | 215 | 13.0 | 20.9 | 0.00 | 0.00 | 0.00 | 78 | 870.2 |
| 20260507070552 | 47 | 220 | 14.8 | 20.9 | 0.00 | 0.00 | 0.00 | 77 | 870.1 |
| 20260507070352 | 47 | 220 | 13.9 | 19.1 | 0.00 | 0.00 | 0.00 | 77 | 870.1 |
| 20260507070152 | 47 | 226 | 12.2 | 18.2 | 0.00 | 0.00 | 0.00 | 77 | 870.1 |
| 20260507065950 | 47 | 226 | 10.4 | 14.8 | 0.00 | 0.00 | 0.00 | 77 | 870.2 |
| 20260507065750 | 47 | 221 | 10.4 | 13.9 | 0.00 | 0.00 | 0.00 | 77 | 870.2 |
| 20260507065550 | 47 | 220 | 9.6 | 15.6 | 0.00 | 0.00 | 0.00 | 77 | 870.2 |
| 20260507065350 | 47 | 221 | 10.4 | 15.6 | 0.00 | 0.00 | 0.00 | 77 | 870.1 |
| 20260507065150 | 47 | 218 | 12.2 | 15.6 | 0.00 | 0.00 | 0.00 | 77 | 870.1 |
| 20260507064949 | 47 | 217 | 10.4 | 16.5 | 0.00 | 0.00 | 0.00 | 77 | 870.1 |
| 20260507064749 | 47 | 212 | 10.4 | 16.5 | 0.00 | 0.00 | 0.00 | 77 | 870.1 |
| 20260507064549 | 47 | 215 | 11.3 | 18.2 | 0.00 | 0.00 | 0.00 | 77 | 870.1 |
| 20260507064349 | 47 | 218 | 11.3 | 19.1 | 0.00 | 0.00 | 0.00 | 77 | 870.1 |
| 20260507064149 | 47 | 220 | 10.4 | 19.1 | 0.00 | 0.00 | 0.00 | 77 | 870.1 |
| 20260507063947 | 47 | 214 | 12.2 | 19.1 | 0.00 | 0.00 | 0.00 | 77 | 870.0 |
| 20260507063747 | 47 | 215 | 12.2 | 22.6 | 0.00 | 0.00 | 0.00 | 78 | 870.0 |
| 20260507063547 | 47 | 207 | 10.4 | 14.8 | 0.00 | 0.00 | 0.00 | 78 | 870.0 |
| 20260507063347 | 47 | 210 | 10.4 | 18.2 | 0.00 | 0.00 | 0.00 | 78 | 870.0 |
| 20260507063147 | 47 | 213 | 11.3 | 20.0 | 0.00 | 0.00 | 0.00 | 78 | 870.0 |
| 20260507062947 | 47 | 209 | 12.2 | 20.0 | 0.00 | 0.00 | 0.00 | 78 | 869.9 |
| 20260507062747 | 47 | 213 | 12.2 | 20.0 | 0.00 | 0.00 | 0.00 | 77 | 869.9 |
| 20260507062547 | 47 | 204 | 10.4 | 16.5 | 0.00 | 0.00 | 0.00 | 78 | 869.9 |
| 20260507062347 | 47 | 201 | 12.2 | 20.0 | 0.00 | 0.00 | 0.00 | 77 | 869.9 |
| 20260507062147 | 47 | 196 | 12.2 | 20.0 | 0.00 | 0.00 | 0.00 | 77 | 869.8 |
| 20260507061945 | 47 | 201 | 11.3 | 18.2 | 0.00 | 0.00 | 0.00 | 78 | 869.8 |
| 20260507061745 | 47 | 194 | 11.3 | 21.7 | 0.00 | 0.00 | 0.00 | 78 | 869.7 |
| 20260507061546 | 47 | 205 | 12.2 | 21.7 | 0.00 | 0.00 | 0.00 | 78 | 869.7 |
| 20260507061346 | 47 | 203 | 11.3 | 19.1 | 0.00 | 0.00 | 0.00 | 78 | 869.6 |
| 20260507061146 | 46 | 207 | 12.2 | 21.7 | 0.00 | 0.00 | 0.00 | 78 | 869.6 |
| 20260507060946 | 46 | 209 | 13.9 | 20.0 | 0.00 | 0.00 | 0.00 | 78 | 869.5 |
| 20260507060746 | 46 | 202 | 12.2 | 19.1 | 0.00 | 0.00 | 0.00 | 78 | 869.4 |
| 20260507060546 | 46 | 198 | 15.6 | 26.1 | 0.00 | 0.00 | 0.00 | 78 | 869.4 |
| 20260507060346 | 46 | 194 | 13.9 | 26.1 | 0.00 | 0.00 | 0.00 | 78 | 869.3 |
| 20260507060146 | 46 | 198 | 14.8 | 21.7 | 0.00 | 0.00 | 0.00 | 78 | 869.3 |
| 20260507055944 | 46 | 191 | 17.4 | 26.1 | 0.00 | 0.00 | 0.00 | 78 | 869.3 |
| 20260507055742 | 46 | 193 | 17.4 | 26.1 | 0.00 | 0.00 | 0.00 | 78 | 869.2 |
| 20260507055542 | 46 | 193 | 16.5 | 23.5 | 0.00 | 0.00 | 0.00 | 78 | 869.2 |
| 20260507055342 | 46 | 191 | 19.1 | 31.3 | 0.00 | 0.00 | 0.00 | 78 | 869.1 |
| 20260507055142 | 46 | 187 | 19.1 | 25.2 | 0.00 | 0.00 | 0.00 | 78 | 869.1 |
| 20260507054942 | 46 | 189 | 19.1 | 27.8 | 0.00 | 0.00 | 0.00 | 78 | 869.0 |
| 20260507054820 | 46 | 185 | 22.6 | 27.8 | 0.00 | 0.00 | 0.00 | 78 | 869.0 |
| 20260507054742 | 46 | 185 | 22.6 | 27.8 | 0.00 | 0.00 | 0.00 | 78 | 869.0 |
| 20260507054542 | 46 | 193 | 20.0 | 27.8 | 0.00 | 0.00 | 0.00 | 78 | 869.0 |
| 20260507054342 | 46 | 196 | 17.4 | 26.9 | 0.00 | 0.00 | 0.00 | 78 | 869.0 |
| 20260507054142 | 46 | 192 | 17.4 | 26.9 | 0.00 | 0.00 | 0.00 | 78 | 868.9 |
| 20260507053940 | 46 | 189 | 20.0 | 27.8 | 0.00 | 0.00 | 0.00 | 78 | 868.8 |
| 20260507053740 | 46 | 186 | 22.6 | 28.7 | 0.00 | 0.00 | 0.00 | 78 | 868.8 |
| 20260507053540 | 46 | 189 | 20.9 | 28.7 | 0.00 | 0.00 | 0.00 | 78 | 868.8 |
| 20260507053340 | 46 | 193 | 20.0 | 26.9 | 0.00 | 0.00 | 0.00 | 78 | 868.9 |
| 20260507053140 | 46 | 190 | 18.2 | 27.8 | 0.00 | 0.00 | 0.00 | 78 | 868.8 |
| 20260507052931 | 46 | 188 | 19.1 | 29.5 | 0.00 | 0.00 | 0.00 | 78 | 868.8 |
| 20260507052731 | 46 | 191 | 19.1 | 27.8 | 0.00 | 0.00 | 0.00 | 78 | 868.8 |
| 20260507052531 | 46 | 187 | 20.0 | 26.1 | 0.00 | 0.00 | 0.00 | 78 | 868.8 |
| 20260507052331 | 46 | 188 | 20.9 | 27.8 | 0.00 | 0.00 | 0.00 | 78 | 868.8 |
| 20260507052131 | 46 | 192 | 20.9 | 27.8 | 0.00 | 0.00 | 0.00 | 78 | 868.9 |
| 20260507051929 | 46 | 194 | 19.1 | 26.1 | 0.00 | 0.00 | 0.00 | 78 | 868.9 |
| 20260507051729 | 46 | 190 | 20.9 | 31.3 | 0.00 | 0.00 | 0.00 | 78 | 868.9 |
| 20260507051530 | 46 | 188 | 22.6 | 31.3 | 0.00 | 0.00 | 0.00 | 78 | 868.8 |
| 20260507051329 | 46 | 186 | 21.7 | 30.4 | 0.00 | 0.00 | 0.00 | 78 | 868.8 |
| 20260507051129 | 46 | 186 | 20.0 | 29.5 | 0.00 | 0.00 | 0.00 | 78 | 868.8 |
| 20260507050929 | 46 | 186 | 20.0 | 26.1 | 0.00 | 0.00 | 0.00 | 78 | 868.8 |
| 20260507050729 | 46 | 191 | 17.4 | 26.1 | 0.00 | 0.00 | 0.00 | 78 | 868.8 |
| 20260507050529 | 46 | 193 | 16.5 | 28.7 | 0.00 | 0.00 | 0.00 | 78 | 868.8 |
| 20260507050329 | 46 | 187 | 20.9 | 28.7 | 0.00 | 0.00 | 0.00 | 78 | 868.7 |
| 20260507050129 | 46 | 192 | 20.9 | 28.7 | 0.00 | 0.00 | 0.00 | 78 | 868.7 |
| 20260507045926 | 45 | 193 | 17.4 | 26.1 | 0.00 | 0.00 | 0.00 | 78 | 868.7 |
| 20260507045726 | 45 | 191 | 16.5 | 24.3 | 0.00 | 0.00 | 0.00 | 78 | 868.7 |
| 20260507045526 | 45 | 200 | 16.5 | 21.7 | 0.00 | 0.00 | 0.00 | 78 | 868.7 |
| 20260507045326 | 45 | 209 | 15.6 | 21.7 | 0.00 | 0.00 | 0.00 | 78 | 868.7 |
| 20260507045127 | 45 | 207 | 14.8 | 20.0 | 0.00 | 0.00 | 0.00 | 78 | 868.6 |
| 20260507044925 | 45 | 197 | 18.2 | 25.2 | 0.00 | 0.00 | 0.00 | 78 | 868.6 |
| 20260507044725 | 45 | 194 | 18.2 | 25.2 | 0.00 | 0.00 | 0.00 | 78 | 868.5 |
| 20260507044525 | 45 | 196 | 17.4 | 25.2 | 0.00 | 0.00 | 0.00 | 78 | 868.6 |
| 20260507044325 | 45 | 197 | 15.6 | 22.6 | 0.00 | 0.00 | 0.00 | 78 | 868.6 |
| 20260507044125 | 45 | 194 | 17.4 | 26.9 | 0.00 | 0.00 | 0.00 | 78 | 868.6 |
| 20260507043923 | 45 | 194 | 16.5 | 26.9 | 0.00 | 0.00 | 0.00 | 78 | 868.6 |
| 20260507043723 | 45 | 197 | 16.5 | 21.7 | 0.00 | 0.00 | 0.00 | 78 | 868.6 |
| 20260507043523 | 45 | 191 | 17.4 | 24.3 | 0.00 | 0.00 | 0.00 | 78 | 868.7 |
| 20260507043323 | 45 | 193 | 17.4 | 26.1 | 0.00 | 0.00 | 0.00 | 78 | 868.7 |
| 20260507043123 | 45 | 199 | 17.4 | 26.1 | 0.00 | 0.00 | 0.00 | 78 | 868.7 |
| 20260507042923 | 45 | 203 | 14.8 | 23.5 | 0.00 | 0.00 | 0.00 | 78 | 868.7 |
| 20260507042723 | 45 | 197 | 15.6 | 22.6 | 0.00 | 0.00 | 0.00 | 78 | 868.7 |
| 20260507042523 | 45 | 198 | 16.5 | 25.2 | 0.00 | 0.00 | 0.00 | 78 | 868.8 |
| 20260507042323 | 45 | 197 | 16.5 | 25.2 | 0.00 | 0.00 | 0.00 | 78 | 868.8 |
| 20260507042123 | 45 | 197 | 15.6 | 25.2 | 0.00 | 0.00 | 0.00 | 78 | 868.7 |
| 20260507041921 | 45 | 194 | 13.9 | 22.6 | 0.00 | 0.00 | 0.00 | 78 | 868.7 |
| 20260507041721 | 45 | 200 | 14.8 | 22.6 | 0.00 | 0.00 | 0.00 | 77 | 868.7 |
| 20260507041521 | 45 | 199 | 17.4 | 26.1 | 0.00 | 0.00 | 0.00 | 77 | 868.7 |
| 20260507041321 | 45 | 203 | 16.5 | 28.7 | 0.00 | 0.00 | 0.00 | 77 | 868.7 |
| 20260507041122 | 45 | 201 | 16.5 | 28.7 | 0.00 | 0.00 | 0.00 | 77 | 868.7 |
| 20260507040921 | 45 | 199 | 13.9 | 18.2 | 0.00 | 0.00 | 0.00 | 77 | 868.6 |
| 20260507040721 | 45 | 196 | 16.5 | 27.8 | 0.00 | 0.00 | 0.00 | 77 | 868.6 |
| 20260507040521 | 45 | 198 | 15.6 | 27.8 | 0.00 | 0.00 | 0.00 | 77 | 868.6 |
| 20260507040321 | 45 | 192 | 14.8 | 25.2 | 0.00 | 0.00 | 0.00 | 77 | 868.5 |
| 20260507040121 | 45 | 193 | 18.2 | 25.2 | 0.00 | 0.00 | 0.00 | 77 | 868.5 |
| 20260507035919 | 45 | 189 | 20.0 | 25.2 | 0.00 | 0.00 | 0.00 | 77 | 868.5 |
| 20260507035719 | 45 | 190 | 20.0 | 26.1 | 0.00 | 0.00 | 0.00 | 77 | 868.5 |
| 20260507035519 | 45 | 189 | 20.0 | 26.1 | 0.00 | 0.00 | 0.00 | 77 | 868.4 |
| 20260507035319 | 45 | 189 | 19.1 | 26.9 | 0.00 | 0.00 | 0.00 | 77 | 868.4 |
| 20260507035119 | 45 | 188 | 18.2 | 23.5 | 0.00 | 0.00 | 0.00 | 77 | 868.3 |
| 20260507034919 | 45 | 188 | 20.0 | 27.8 | 0.00 | 0.00 | 0.00 | 77 | 868.3 |
| 20260507034719 | 45 | 189 | 20.9 | 27.8 | 0.00 | 0.00 | 0.00 | 77 | 868.3 |
| 20260507034519 | 45 | 192 | 20.0 | 29.5 | 0.00 | 0.00 | 0.00 | 77 | 868.3 |
| 20260507034319 | 45 | 188 | 22.6 | 29.5 | 0.00 | 0.00 | 0.00 | 77 | 868.3 |
| 20260507034117 | 45 | 190 | 22.6 | 34.8 | 0.00 | 0.00 | 0.00 | 77 | 868.2 |
| 20260507033915 | 45 | 184 | 20.0 | 34.8 | 0.00 | 0.00 | 0.00 | 77 | 868.2 |
| 20260507033715 | 45 | 186 | 21.7 | 33.9 | 0.00 | 0.00 | 0.00 | 77 | 868.1 |
| 20260507033515 | 45 | 183 | 21.7 | 33.9 | 0.00 | 0.00 | 0.00 | 77 | 868.0 |
| 20260507033315 | 45 | 184 | 20.9 | 30.4 | 0.00 | 0.00 | 0.00 | 77 | 868.0 |
| 20260507033115 | 45 | 183 | 23.5 | 30.4 | 0.00 | 0.00 | 0.00 | 76 | 867.9 |
| 20260507032914 | 45 | 182 | 22.6 | 31.3 | 0.00 | 0.00 | 0.00 | 76 | 867.9 |
| 20260507032715 | 45 | 181 | 20.0 | 26.9 | 0.00 | 0.00 | 0.00 | 76 | 868.0 |
| 20260507032515 | 45 | 183 | 20.0 | 29.5 | 0.00 | 0.00 | 0.00 | 76 | 868.0 |
| 20260507032315 | 45 | 183 | 21.7 | 29.5 | 0.00 | 0.00 | 0.00 | 76 | 868.0 |
| 20260507032115 | 45 | 185 | 20.9 | 28.7 | 0.00 | 0.00 | 0.00 | 76 | 868.0 |
| 20260507031913 | 45 | 188 | 21.7 | 31.3 | 0.00 | 0.00 | 0.00 | 76 | 868.0 |
| 20260507031713 | 45 | 186 | 21.7 | 30.4 | 0.00 | 0.00 | 0.00 | 76 | 868.0 |
| 20260507031513 | 45 | 186 | 20.9 | 30.4 | 0.00 | 0.00 | 0.00 | 76 | 868.0 |
| 20260507031313 | 45 | 186 | 23.5 | 29.5 | 0.00 | 0.00 | 0.00 | 76 | 812.1 |
| 20260507031113 | 45 | 190 | 22.6 | 26.9 | 0.00 | 0.00 | 0.00 | 76 | 756.4 |
| 20260507030902 | 45 | 183 | 21.7 | 27.8 | 0.00 | 0.00 | 0.00 | 76 | 868.1 |
| 20260507030700 | 45 | 183 | 20.9 | 27.8 | 0.00 | 0.00 | 0.00 | 76 | 868.2 |
| 20260507030500 | 45 | 189 | 19.1 | 26.1 | 0.00 | 0.00 | 0.00 | 76 | 868.2 |
| 20260507030300 | 46 | 186 | 21.7 | 30.4 | 0.00 | 0.00 | 0.00 | 76 | 868.1 |
| 20260507030100 | 46 | 185 | 22.6 | 33.0 | 0.00 | 0.00 | 0.00 | 76 | 868.1 |
| 20260507025900 | 46 | 183 | 20.9 | 30.4 | 0.00 | 0.00 | 0.00 | 76 | 868.2 |
| 20260507025700 | 46 | 183 | 22.6 | 33.0 | 0.00 | 0.00 | 0.00 | 75 | 868.1 |
| 20260507025500 | 46 | 184 | 20.0 | 24.3 | 0.00 | 0.00 | 0.00 | 75 | 868.2 |
| 20260507025300 | 46 | 182 | 21.7 | 33.0 | 0.00 | 0.00 | 0.00 | 75 | 868.1 |
| 20260507025100 | 46 | 182 | 22.6 | 33.0 | 0.00 | 0.00 | 0.00 | 75 | 868.2 |
| 20260507024859 | 46 | 183 | 23.5 | 32.2 | 0.00 | 0.00 | 0.00 | 75 | 868.2 |
| 20260507024659 | 46 | 182 | 21.7 | 32.2 | 0.00 | 0.00 | 0.00 | 75 | 868.1 |
| 20260507024459 | 46 | 182 | 20.0 | 28.7 | 0.00 | 0.00 | 0.00 | 75 | 868.2 |
| 20260507024259 | 46 | 177 | 20.0 | 28.7 | 0.00 | 0.00 | 0.00 | 75 | 868.2 |
| 20260507024059 | 46 | 172 | 21.7 | 29.5 | 0.00 | 0.00 | 0.00 | 75 | 868.3 |
| 20260507023859 | 46 | 174 | 20.0 | 27.8 | 0.00 | 0.00 | 0.00 | 75 | 868.3 |
| 20260507023659 | 46 | 182 | 20.9 | 26.9 | 0.00 | 0.00 | 0.00 | 75 | 868.3 |
| 20260507023459 | 46 | 175 | 20.9 | 26.9 | 0.00 | 0.00 | 0.00 | 75 | 868.3 |
| 20260507023259 | 46 | 180 | 20.0 | 26.1 | 0.00 | 0.00 | 0.00 | 75 | 868.3 |
| 20260507023059 | 46 | 178 | 17.4 | 24.3 | 0.00 | 0.00 | 0.00 | 75 | 868.3 |
| 20260507022857 | 46 | 175 | 17.4 | 24.3 | 0.00 | 0.00 | 0.00 | 75 | 868.3 |
| 20260507022657 | 46 | 172 | 18.2 | 28.7 | 0.00 | 0.00 | 0.00 | 75 | 868.3 |
| 20260507022457 | 46 | 174 | 19.1 | 28.7 | 0.00 | 0.00 | 0.00 | 75 | 868.3 |
| 20260507022257 | 46 | 175 | 18.2 | 31.3 | 0.00 | 0.00 | 0.00 | 75 | 868.3 |
| 20260507022057 | 46 | 180 | 20.9 | 31.3 | 0.00 | 0.00 | 0.00 | 75 | 868.3 |
| 20260507021857 | 46 | 172 | 18.2 | 31.3 | 0.00 | 0.00 | 0.00 | 75 | 868.3 |
| 20260507021657 | 46 | 167 | 18.2 | 31.3 | 0.00 | 0.00 | 0.00 | 74 | 868.2 |
| 20260507021457 | 46 | 172 | 20.0 | 26.1 | 0.00 | 0.00 | 0.00 | 74 | 868.2 |
| 20260507021257 | 46 | 172 | 19.1 | 23.5 | 0.00 | 0.00 | 0.00 | 74 | 868.2 |
| 20260507021057 | 46 | 177 | 20.9 | 30.4 | 0.00 | 0.00 | 0.00 | 74 | 868.2 |
| 20260507020855 | 46 | 182 | 20.9 | 28.7 | 0.00 | 0.00 | 0.00 | 74 | 868.2 |
| 20260507020655 | 46 | 178 | 22.6 | 31.3 | 0.00 | 0.00 | 0.00 | 74 | 868.1 |
| 20260507020455 | 46 | 180 | 20.9 | 31.3 | 0.00 | 0.00 | 0.00 | 74 | 868.1 |
| 20260507020255 | 46 | 175 | 20.9 | 29.5 | 0.00 | 0.00 | 0.00 | 74 | 868.1 |
| 20260507020055 | 46 | 172 | 20.9 | 29.5 | 0.00 | 0.00 | 0.00 | 74 | 868.1 |
| 20260507015853 | 46 | 174 | 18.2 | 24.3 | 0.00 | 0.00 | 0.00 | 74 | 868.3 |
| 20260507015653 | 46 | 179 | 17.4 | 22.6 | 0.00 | 0.00 | 0.00 | 74 | 868.3 |
| 20260507015453 | 46 | 178 | 16.5 | 23.5 | 0.00 | 0.00 | 0.00 | 74 | 868.3 |
| 20260507015253 | 46 | 175 | 16.5 | 24.3 | 0.00 | 0.00 | 0.00 | 74 | 868.2 |
| 20260507015053 | 46 | 177 | 19.1 | 27.8 | 0.00 | 0.00 | 0.00 | 74 | 868.2 |
| 20260507014851 | 46 | 173 | 22.6 | 28.7 | 0.00 | 0.00 | 0.00 | 74 | 868.1 |
| 20260507014651 | 46 | 172 | 20.9 | 31.3 | 0.00 | 0.00 | 0.00 | 74 | 868.0 |
| 20260507014451 | 46 | 171 | 19.1 | 29.5 | 0.00 | 0.00 | 0.00 | 74 | 868.0 |
| 20260507014251 | 46 | 166 | 21.7 | 29.5 | 0.00 | 0.00 | 0.00 | 74 | 868.0 |
| 20260507014051 | 46 | 161 | 19.1 | 29.5 | 0.00 | 0.00 | 0.00 | 74 | 868.0 |
| 20260507013851 | 46 | 169 | 20.9 | 28.7 | 0.00 | 0.00 | 0.00 | 74 | 868.1 |
| 20260507013651 | 46 | 177 | 20.0 | 28.7 | 0.00 | 0.00 | 0.00 | 73 | 868.2 |
| 20260507013451 | 46 | 180 | 18.2 | 27.8 | 0.00 | 0.00 | 0.00 | 73 | 868.3 |
| 20260507013252 | 46 | 176 | 20.0 | 27.8 | 0.00 | 0.00 | 0.00 | 73 | 868.4 |